User: anonymous   Login
Location: Caltech
(34.1382°N, 118.1253°W)
Time: 13:02:19
(UTC-07:00)
Language:

Cosmos 1980 Rocket - Orbit

View from above orbital plane
View from above orbital plane
View from above satellite
View from above satellite

Ground track
Ground track

The orbit data is extracted from the following two-line orbital elements,

1 19650U 88102B   15210.47143713 -.00000229  00000-0 -92173-4 0  9990
2 19650 070.9995 023.2268 0013298 158.8969 201.2706 14.15720961378512
Epoch (UTC): 29 July 2015 11:18:52
Eccentricity: 0.0013298
inclination: 70.9995°
perigee height: 830 km
apogee height: 849 km
right ascension of ascending node: 23.2268°
argument of perigee: 158.8969°
revolutions per day: 14.15720961
mean anomaly at epoch: 201.2706°
orbit number at epoch: 37851

The dashed part of the orbit path shows where the satellite is in the earth's shadow,  

DLR